Home > Weather > Langfang > Past weeks

Flag for China Weather for the Past 2 Weeks in Langfang, Hebei, China

Now
43 °F

Light rain. Fog.


Feels Like: 43 °F
Forecast: 24 / 42 °F
Wind: 1 mph from Northeast

Location: Beijing Airport

Current Time: Feb 12, 2016 at 6:02:05 PM

Latest Report: Feb 12, 2016 at 5:30 PM


Visibility: 2 mi

Pressure: 29.98 "Hg

Humidity: 87%

Dew point: 39 °F

Location of LangfangLocation

Historic Weather in Langfang — Graph

°F

Langfang Temperature Yesterday

Maximum temperature yesterday: 45 °F (at 3:00 PM)
Minimum temperature yesterday: 30 °F (at 12:00 AM)
Average temperature yesterday: 38 °F

High & Low Weather Summary for the Past Weeks

 TemperatureHumidityPressure
High54 °F (Feb 8, 1:00 PM)87% (Feb 12, 5:00 PM)30.69 "Hg (Feb 12, 5:00 PM)
Low5 °F (Jan 31, 7:30 AM)12% (Feb 2, 3:30 PM)29.89 "Hg (Feb 8, 4:30 AM)
Average31 °F39%30.33 "Hg
* Reported Jan 28 5:00 PM — Feb 12 5:00 PM, Langfang, Weather by CustomWeather, © 2016

Note: Actual official high and low records may vary slightly from our data, if they occured in-between our weather recording intervals... More about our weather records

Advertising

Langfang Weather History for the Previous 24 Hours

 ConditionsComfort  
Time TempWeatherWind HumidityBarometerVisibility
5:00 PM
Fri, Feb 12
43 °FLight rain. Fog.3 mph87%29.95 "Hg2 mi
4:30 PM45 °FLight rain. Fog.1 mph81%29.95 "Hg3 mi
4:00 PM48 °FLight rain. Haze.1 mph66%29.95 "Hg3 mi
3:30 PM48 °FHaze.1 mph58%29.95 "Hg3 mi
3:00 PM50 °FHaze.3 mph50%29.95 "Hg3 mi
2:30 PM50 °FHaze.1 mph50%29.95 "Hg3 mi
2:00 PM50 °FHaze.3 mph50%29.95 "Hg3 mi
1:30 PM50 °FHaze.1 mph47%29.98 "Hg3 mi
1:00 PM50 °FHaze.1 mph50%29.98 "Hg3 mi
12:30 PM48 °FHaze.1 mph50%29.98 "Hg2 mi
12:00 PM48 °FHaze.3 mph50%29.98 "Hg2 mi
11:30 AM48 °FHaze.3 mph50%30.01 "Hg2 mi
11:00 AM45 °FHaze.3 mph57%30.04 "Hg2 mi
10:30 AM43 °FHaze.6 mph61%30.04 "Hg2 mi
10:00 AM41 °FHaze.3 mph61%30.04 "Hg2 mi
9:30 AM37 °FFog.3 mph70%30.04 "Hg2 mi
9:00 AM36 °FFog.3 mph75%30.04 "Hg2 mi
8:30 AM34 °FFog.3 mph81%30.04 "Hg2 mi
8:00 AM28 °FIce fog.3 mph86%30.04 "Hg2 mi
7:30 AM27 °FIce fog.3 mph86%30.01 "Hg2 mi
7:00 AM28 °FIce fog.1 mph86%30.01 "Hg3 mi
6:00 AM28 °FClear.1 mph80%30.01 "Hg4 mi
5:30 AM28 °FClear.3 mph80%30.01 "Hg4 mi
5:00 AM27 °FClear.3 mph86%30.01 "Hg4 mi
4:30 AM30 °FClear.1 mph80%30.01 "Hg4 mi
4:00 AM30 °FClear.3 mph75%30.01 "Hg4 mi
3:30 AM32 °FClear.6 mph75%30.01 "Hg4 mi
3:00 AM28 °FHaze.6 mph80%30.01 "Hg3 mi
2:30 AM32 °FOvercast.3 mph75%30.01 "Hg2 mi
2:00 AM34 °FOvercast.3 mph70%30.04 "Hg2 mi
1:30 AM34 °FOvercast.3 mph70%30.01 "Hg2 mi
1:00 AM36 °FOvercast.3 mph70%30.01 "Hg2 mi
12:30 AM37 °FOvercast.1 mph75%30.04 "Hg2 mi
12:00 AM39 °FOvercast.1 mph70%30.04 "Hg2 mi
11:30 PM
Thu, Feb 11
39 °FOvercast.1 mph75%30.04 "Hg2 mi
11:00 PM41 °FOvercast.No wind70%30.04 "Hg2 mi
10:30 PM41 °FOvercast.1 mph70%30.04 "Hg2 mi
10:00 PM39 °FOvercast.1 mph70%30.04 "Hg2 mi
9:30 PM41 °FOvercast.1 mph66%30.01 "Hg2 mi
9:00 PM41 °FOvercast.No wind66%30.04 "Hg2 mi
8:30 PM41 °FOvercast.1 mph70%30.04 "Hg2 mi
8:00 PM43 °FOvercast.1 mph71%30.04 "Hg2 mi
7:30 PM41 °FOvercast.1 mph70%30.01 "Hg2 mi
7:00 PM43 °FOvercast.1 mph66%30.01 "Hg2 mi
6:30 PM43 °FOvercast.3 mph66%30.01 "Hg2 mi
6:00 PM43 °FOvercast.1 mph61%30.01 "Hg2 mi
Weather by CustomWeather, © 2016

See weather overviewHow to use our weather pages